Погода в Нелюбине

Россия / Томская область     56°33′48″N   84°33′02″E
темп.,
°C
ветер,
м/с
пор.,
м/с
влажн.,
%
обл.,
%
осадки,
мм/ч
давл.,
гПа
погр.,
м
12 апреля, пн
пн1201:00+1зюз389998 0.0 1036267
04:00+1юз3898100 0.0 1034302
07:000юз4109393 0.0 1033346
10:00+2юз51285100 0.0 1031421
13:00+4юз51479100 0.0 1028531
16:00+6зюз51378100 0.0 1026692
19:00+4зюз41185100 0.1 1026513
22:00+2зюз41097100 3.3 1026427
13 апреля, вт
вт1301:00+2зсз31098100 4.7 1026570
04:00+1з2697100 0.0 1026180
07:00−1ссз4894100 0.0 1028497
10:00+1сз35765 0.0 1029611
13:00+4зсз4775100 0.1 10291192
16:00+6зсз586354 0.1 10281585
19:00+4зсз41072100 0.3 1028717
22:00+2зсз3985100 0.3 1029421
14 апреля, ср
ср1401:00+1з399146 0.3 1030243
04:000з399382 0.0 1029262
07:000зюз399398 0.0 1029326
10:00+3зюз4881100 0.0 1028549
13:00+2юз51297100 1.3 1026671
16:00+5юз51286100 1.9 1022956
19:00+6з61275100 1.9 10201033
22:00+5сз41087100 0.1 1021638
15 апреля, чт
чт1501:00+4зсз2693100 0.4 1022273
04:00+3зсз2594100 0.0 1022175
07:00+3зсз1496100 0.0 1023131
10:00+4зсз1389100 0.0 1023304
13:00+6юз3479100 0.0 1021621
16:00+8зюз4667100 0.0 10191262
19:00+8юз3880100 0.1 1017504
22:00+7юз41386100 0.0 1015480
16 апреля, пт
пт1601:00+7юз514939 0.1 1013427
04:00+7юз5139415 0.1 1011353
07:00+6зюз5139113 0.1 1011393
10:00+9зсз478093 0.0 1012732
13:00+4с3587100 0.1 1014362
16:00+6ссз4576100 0.0 1015731
19:00+5с357391 0.0 1016753
22:00+3ссв376893 0.0 1017365